Date,TemperatureHighF,TemperatureAvgF,TemperatureLowF,DewpointHighF,DewpointAvgF,DewpointLowF,HumidityHigh,HumidityAvg,HumidityLow,PressureMaxIn,PressureMinIn,WindSpeedMaxMPH,WindSpeedAvgMPH,GustSpeedMaxMPH,PrecipitationSumIn
2013-1-1,15,7,-3,2,-4,-9,72,62,51,0.00,40.00,9,4,14,0.00
2013-1-2,30,17,4,26,10,-3,82,73,64,0.00,40.00,12,6,17,0.00
2013-1-3,29,18,11,24,10,5,81,70,60,0.00,40.00,14,8,22,0.00
2013-1-4,34,22,11,18,14,6,84,70,47,0.00,40.00,10,6,14,0.00
2013-1-5,38,27,18,29,20,12,88,74,62,0.00,40.00,17,9,26,0.00
2013-1-6,31,20,13,16,11,4,75,67,50,0.00,40.00,19,8,26,0.00
2013-1-7,41,32,21,25,20,13,81,63,48,0.00,40.00,17,8,23,0.00
2013-1-8,44,32,20,30,25,17,88,74,56,0.00,40.00,13,7,21,0.00
2013-1-9,47,36,32,29,27,23,81,70,42,0.00,40.00,12,6,18,0.00
2013-1-10,40,34,29,34,28,23,90,76,50,0.00,40.00,14,7,20,0.13
2013-1-11,51,41,35,42,37,33,90,86,59,0.00,40.00,21,8,27,0.00
2013-1-12,51,23,14,38,11,2,82,60,54,0.00,40.00,23,13,34,0.00
2013-1-13,18,13,9,5,1,-2,63,59,54,0.00,40.00,14,9,21,0.00
2013-1-14,30,18,9,10,6,0,71,59,39,0.00,40.00,11,4,15,0.00
2013-1-15,33,23,13,13,9,4,68,54,37,0.00,40.00,12,6,16,0.00
2013-1-16,47,33,23,30,21,8,81,60,50,0.00,40.00,19,11,27,0.00
2013-1-17,35,24,14,21,13,6,79,63,41,0.00,40.00,15,5,21,0.00
2013-1-18,53,39,24,29,26,16,76,59,39,0.00,40.00,22,10,30,0.00
2013-1-19,51,38,16,30,25,3,74,59,42,0.00,40.00,24,12,37,0.00
2013-1-20,16,11,7,6,2,-1,75,66,54,0.00,40.00,17,9,26,0.55
2013-1-21,7,2,-4,0,-7,-14,74,66,61,0.00,40.00,19,11,27,0.00
2013-1-22,15,8,0,4,-2,-8,69,61,50,0.00,40.00,10,4,14,0.00
2013-1-23,26,16,4,15,5,-7,68,60,53,0.00,40.00,21,12,31,0.00
2013-1-24,19,10,2,4,-4,-10,60,52,44,0.00,40.00,15,11,21,0.00
2013-1-25,35,23,10,20,10,-1,73,56,50,0.00,40.00,20,10,27,0.00
2013-1-26,32,19,6,12,5,-2,72,55,39,0.00,40.00,14,8,19,0.00
2013-1-27,34,32,29,31,26,12,90,78,49,0.00,40.00,16,6,21,1.53
2013-1-28,47,36,32,44,33,29,90,90,90,0.00,40.00,18,6,21,0.76
2013-1-29,51,38,32,48,34,26,90,86,77,0.00,40.00,21,9,26,0.11
2013-1-30,32,23,14,27,15,3,86,71,55,0.00,40.00,27,18,37,1.55
2013-1-31,14,4,-1,3,-9,-14,61,53,51,0.00,40.00,23,16,34,0.00
2013-2-1,24,6,-5,12,-7,-16,61,54,48,0.00,40.00,15,8,22,0.00
2013-2-2,33,20,13,25,9,2,82,63,46,0.00,40.00,17,9,27,0.04
2013-2-3,33,25,15,25,12,6,74,57,42,0.00,40.00,24,10,32,0.01
2013-2-4,26,22,18,18,14,11,76,69,60,0.00,40.00,19,8,24,0.00
2013-2-5,40,31,22,27,22,15,82,70,55,0.00,40.00,16,8,23,0.00
2013-2-6,41,32,23,31,25,18,82,76,63,0.00,40.00,15,6,21,0.00
2013-2-7,37,32,28,32,28,22,88,83,73,0.00,40.00,19,10,26,0.45
2013-2-8,29,27,24,22,20,18,79,75,70,0.00,40.00,15,8,21,0.00
2013-2-9,34,30,27,29,25,22,83,80,77,0.00,40.00,18,13,24,0.16
2013-2-10,45,36,31,40,31,22,90,82,52,0.00,40.00,26,16,39,1.14
2013-2-11,31,29,27,22,18,15,68,61,57,0.00,40.00,30,17,40,0.11
2013-2-12,42,30,24,21,18,16,73,62,39,0.00,40.00,13,8,19,0.00
2013-2-13,49,42,26,26,25,22,82,50,38,0.00,40.00,12,8,17,0.00
2013-2-14,41,35,24,27,24,12,74,66,54,0.00,40.00,22,12,30,0.06
2013-2-15,27,21,16,12,9,4,70,58,49,0.00,40.00,16,10,24,0.00
2013-2-16,34,23,13,18,12,7,77,64,43,0.00,40.00,9,4,14,0.00
2013-2-17,43,30,19,23,19,14,80,64,43,0.00,40.00,19,11,26,0.00
2013-2-18,40,30,15,31,20,5,81,66,59,0.00,40.00,24,13,34,0.07
2013-2-19,20,12,4,6,0,-6,67,58,44,0.00,40.00,26,16,35,0.00
2013-2-20,24,13,1,9,0,-8,67,56,42,0.00,40.00,12,6,17,0.00
2013-2-21,26,21,16,20,13,9,88,71,55,0.00,40.00,25,15,31,0.08
2013-2-22,30,25,23,22,18,14,90,77,64,0.00,40.00,17,9,24,0.16
2013-2-23,30,21,13,15,12,8,81,68,50,0.00,40.00,11,5,17,0.00
2013-2-24,38,25,11,26,18,8,85,73,54,0.00,40.00,7,3,11,0.00
2013-2-25,38,32,27,27,25,23,85,76,59,0.00,40.00,11,5,15,0.00
2013-2-26,32,30,28,29,26,23,90,82,72,0.00,40.00,20,15,27,3.39
2013-2-27,31,28,25,25,22,18,86,78,67,0.00,40.00,18,13,29,0.95
2013-2-28,32,27,21,22,20,15,79,73,63,0.00,40.00,17,11,24,0.27
2013-3-1,28,26,25,21,18,13,80,69,57,0.00,40.00,13,9,18,0.48
2013-3-2,33,23,14,15,12,9,80,65,45,0.00,40.00,11,6,17,0.00
2013-3-3,32,27,23,21,18,15,79,67,53,0.00,40.00,17,10,22,0.06
2013-3-4,34,30,26,27,26,21,88,82,76,0.00,40.00,20,14,26,0.30
2013-3-5,32,28,25,27,21,18,90,74,58,0.00,40.00,22,13,32,0.81
2013-3-6,28,24,13,19,16,8,82,72,60,0.00,40.00,17,8,26,0.00
2013-3-7,31,19,6,22,13,2,83,78,64,0.00,40.00,13,6,19,0.00
2013-3-8,41,32,22,31,25,17,87,76,64,0.00,40.00,13,9,20,0.89
2013-3-9,39,37,35,37,34,31,90,89,83,0.00,40.00,16,10,22,3.91
2013-3-10,39,35,31,36,32,29,90,89,86,0.00,40.00,26,14,34,4.94
2013-3-11,31,28,25,29,23,17,90,82,66,0.00,40.00,19,13,28,0.46
2013-3-12,34,26,21,26,18,13,78,72,57,0.00,40.00,21,11,31,0.34
2013-3-13,34,23,15,17,12,9,77,63,43,0.00,40.00,14,7,22,0.00
2013-3-14,47,35,22,29,24,15,84,65,44,0.00,40.00,14,7,21,0.00
2013-3-15,47,37,30,40,33,27,88,85,76,0.00,40.00,12,5,18,0.00
2013-3-16,36,31,26,33,23,16,88,72,58,0.00,40.00,23,12,30,0.00
2013-3-17,38,29,21,26,19,12,75,65,55,0.00,40.00,20,13,25,0.14
2013-3-18,33,28,20,31,19,8,90,70,50,0.00,40.00,25,14,36,0.72
2013-3-19,34,23,15,16,8,2,65,50,38,0.00,40.00,18,11,26,0.00
2013-3-20,26,20,14,9,4,1,62,50,41,0.00,40.00,21,14,32,0.01
2013-3-21,31,22,12,15,8,3,68,55,42,0.00,40.00,16,6,17,0.00
2013-3-22,37,28,19,21,16,11,74,60,42,0.00,40.00,9,6,13,0.00
2013-3-23,36,31,26,23,20,15,80,62,44,0.00,40.00,12,8,17,0.00
2013-3-24,32,30,27,27,25,21,90,82,62,0.00,40.00,17,12,22,0.53
2013-3-25,36,31,28,27,21,17,90,67,47,0.00,40.00,21,13,28,0.00
2013-3-26,39,30,23,21,18,16,74,61,39,0.00,40.00,15,7,21,0.00
2013-3-27,45,35,26,26,22,19,83,60,38,0.00,40.00,9,4,11,0.00
2013-3-28,54,40,29,33,29,26,85,66,38,0.00,40.00,11,6,15,0.00
2013-3-29,60,45,32,34,31,29,88,62,35,0.00,40.00,13,7,18,0.00
2013-3-30,57,48,43,49,39,-100,89,75,56,0.00,40.00,12,6,16,0.82
2013-3-31,49,41,31,41,29,16,90,64,39,0.00,40.00,21,12,31,0.00
2013-4-1,37,30,24,17,14,12,64,52,39,0.00,40.00,17,10,24,0.00
2013-4-2,43,33,24,25,19,14,79,57,32,0.00,40.00,14,6,21,0.00
2013-4-3,50,37,26,24,20,17,80,53,29,0.00,40.00,13,6,19,0.00
2013-4-4,59,46,33,35,25,16,67,45,34,0.00,40.00,14,8,21,0.00
2013-4-5,58,46,32,31,26,22,84,50,26,0.00,40.00,17,10,24,0.00
2013-4-6,66,55,45,44,38,27,78,53,38,0.00,40.00,20,12,29,0.00
2013-4-7,64,48,36,39,36,34,91,66,36,0.00,40.00,16,8,20,0.00
2013-4-8,74,62,44,51,45,38,88,58,30,0.00,40.00,18,6,23,0.14
2013-4-9,56,47,42,51,44,39,90,89,80,0.00,40.00,26,16,31,1.90
2013-4-10,42,39,37,39,35,34,89,86,84,0.00,40.00,32,14,40,0.94
2013-4-11,42,38,36,39,35,31,90,85,71,0.00,40.00,14,8,22,0.68
2013-4-12,39,36,34,34,28,22,88,72,57,0.00,40.00,19,12,26,0.14
2013-4-13,49,40,31,34,26,21,73,57,40,0.00,40.00,15,9,22,0.04
2013-4-14,66,50,40,53,42,34,86,75,53,0.00,40.00,22,14,30,1.19
2013-4-15,51,42,37,40,29,21,72,58,45,0.00,40.00,17,8,26,0.00
2013-4-16,50,41,33,34,28,26,75,61,43,0.00,40.00,14,7,22,0.00
2013-4-17,45,42,39,41,38,33,90,82,63,0.00,40.00,33,13,49,2.44
2013-4-18,42,38,35,40,34,28,90,85,72,0.00,40.00,22,14,32,4.54
2013-4-19,40,35,31,28,22,19,77,60,45,0.00,40.00,26,16,36,0.20
2013-4-20,47,37,27,24,20,14,76,52,31,0.00,40.00,14,6,19,0.03
2013-4-21,66,51,40,39,32,24,69,49,27,0.00,40.00,23,15,31,0.25
2013-4-22,65,54,37,47,41,33,87,64,39,0.00,40.00,19,10,26,1.04
2013-4-23,42,36,32,33,26,20,86,67,45,0.00,40.00,21,15,31,0.00
2013-4-24,54,41,28,36,24,19,78,53,25,0.00,40.00,22,9,30,0.04
2013-4-25,61,47,34,32,28,24,82,52,25,0.00,40.00,16,7,26,0.00
2013-4-26,67,58,47,46,40,31,77,52,41,0.00,40.00,26,13,35,0.00
2013-4-27,68,56,45,47,42,38,88,63,35,0.00,40.00,12,6,17,0.00
2013-4-28,76,62,46,49,44,43,86,56,31,0.00,40.00,15,8,24,0.00
2013-4-29,80,67,53,58,51,49,86,57,37,0.00,40.00,11,7,18,0.00
2013-4-30,81,73,57,61,50,41,71,46,34,0.00,40.00,24,15,34,0.00
2013-5-1,57,48,39,48,40,34,89,72,61,0.00,40.00,27,20,39,0.39
2013-5-2,40,35,34,37,33,31,92,91,88,0.00,40.00,28,18,40,7.20
2013-5-3,35,34,33,31,31,30,90,88,82,0.00,40.00,24,17,31,2.64
2013-5-4,49,41,34,46,38,31,90,89,88,0.00,40.00,22,12,37,1.92
2013-5-5,61,50,43,52,46,40,89,83,72,0.00,40.00,13,9,19,0.10
2013-5-6,74,59,45,51,46,42,88,65,33,0.00,40.00,12,6,17,0.00
2013-5-7,78,66,50,52,45,38,86,52,25,0.00,40.00,6,2,11,0.00
2013-5-8,75,62,52,58,52,47,88,69,39,0.00,40.00,14,5,20,0.28
2013-5-9,69,61,53,57,55,49,88,79,57,0.00,40.00,18,8,27,4.14
2013-5-10,67,56,48,49,43,-100,88,68,38,0.00,40.00,18,10,26,0.03
2013-5-11,56,52,46,45,28,-100,74,43,23,0.00,40.00,26,15,40,0.00
2013-5-12,61,50,38,26,22,19,53,35,20,0.00,40.00,13,8,21,0.00
2013-5-13,76,63,40,46,38,27,71,41,28,0.00,40.00,21,10,30,0.00
2013-5-14,96,80,62,58,53,43,68,43,24,0.00,40.00,23,11,34,0.06
2013-5-15,84,73,61,47,43,37,54,35,25,0.00,40.00,22,9,27,0.00
2013-5-16,83,67,56,63,34,-100,78,56,36,0.00,40.00,16,7,22,0.00
2013-5-17,82,72,63,63,54,-100,86,62,38,0.00,40.00,14,7,20,0.00
2013-5-18,85,74,60,61,58,55,86,60,37,0.00,40.00,16,8,23,0.00
2013-5-19,87,74,62,66,60,52,89,66,30,0.00,40.00,32,13,42,1.85
2013-5-20,76,67,60,59,56,53,89,70,44,0.00,40.00,24,12,35,0.00
2013-5-21,69,64,60,59,50,43,86,61,42,0.00,40.00,16,9,24,0.00
2013-5-22,63,59,55,55,52,49,88,78,67,0.00,40.00,15,9,22,0.16
2013-5-23,68,60,53,51,45,37,88,62,34,0.00,40.00,17,11,24,0.00
2013-5-24,70,60,47,50,44,41,80,57,35,0.00,40.00,18,10,27,0.01
2013-5-25,61,54,51,53,49,44,89,82,52,0.00,40.00,22,14,32,2.67
2013-5-26,59,55,51,55,51,47,88,86,80,0.00,40.00,26,13,34,0.76
2013-5-27,74,65,57,62,57,54,89,77,54,0.00,40.00,35,8,50,1.89
2013-5-28,80,71,64,64,61,56,87,71,45,0.00,40.00,12,6,18,0.09
2013-5-29,76,69,65,67,62,58,87,80,66,0.00,40.00,15,8,22,1.96
2013-5-30,74,70,65,66,60,58,84,72,63,0.00,40.00,19,12,28,0.00
2013-5-31,77,70,63,62,59,53,88,68,47,0.00,40.00,21,12,29,0.00
2013-6-1,69,64,59,62,53,44,82,69,47,0.00,40.00,19,10,26,0.00
2013-6-2,66,59,53,49,43,39,76,57,38,0.00,40.00,16,8,27,0.00
2013-6-3,72,62,50,51,46,42,86,57,36,0.00,40.00,14,6,22,0.00
2013-6-4,65,61,56,59,54,49,89,79,66,0.00,40.00,19,10,30,1.24
2013-6-5,71,63,58,60,55,48,88,76,48,0.00,40.00,11,5,17,2.09
2013-6-6,68,62,56,56,50,46,84,67,47,0.00,40.00,15,7,21,0.00
2013-6-7,70,61,54,54,48,44,87,65,40,0.00,40.00,10,4,14,0.00
2013-6-8,71,63,53,60,53,48,88,70,45,0.00,40.00,16,7,22,0.18
2013-6-9,72,66,61,62,58,55,88,75,57,0.00,40.00,16,8,22,0.22
2013-6-10,78,67,59,63,58,55,88,74,47,0.00,40.00,7,3,10,0.01
2013-6-11,88,76,65,71,64,61,85,67,45,0.00,40.00,13,7,20,0.15
2013-6-12,89,77,65,71,66,56,86,70,46,0.00,40.00,25,11,32,0.18
2013-6-13,85,73,62,56,52,48,77,51,29,0.00,40.00,17,8,26,0.00
2013-6-14,74,69,64,64,59,53,87,71,52,0.00,40.00,20,9,33,0.25
2013-6-15,82,73,65,69,64,61,88,76,61,0.00,40.00,19,7,28,0.34
2013-6-16,89,75,67,67,56,42,88,60,20,0.00,40.00,9,5,12,0.00
2013-6-17,89,77,63,58,52,45,81,45,26,0.00,40.00,14,5,20,0.00
2013-6-18,84,75,65,59,54,47,73,49,34,0.00,40.00,14,6,17,0.00
2013-6-19,85,75,65,62,59,54,80,59,35,0.00,40.00,14,9,22,0.00
2013-6-20,88,76,68,63,62,60,78,62,39,0.00,40.00,19,10,30,0.00
2013-6-24,77,72,67,71,66,63,89,81,64,0.00,40.00,26,8,40,0.23
2013-6-25,89,78,69,73,68,64,87,74,44,0.00,40.00,14,8,21,0.04
2013-6-26,91,81,74,74,68,57,86,66,32,0.00,40.00,16,6,24,0.00
2013-6-27,87,78,69,65,61,54,80,57,34,0.00,40.00,16,6,22,0.00
2013-6-28,85,77,69,61,54,49,73,47,30,0.00,40.00,26,13,37,0.00
2013-6-29,76,71,66,62,56,52,73,60,44,0.00,40.00,24,13,33,0.00
2013-6-30,78,69,60,57,49,40,85,53,26,0.00,40.00,17,10,24,0.00
2013-7-1,83,72,60,55,49,46,73,47,28,0.00,40.00,20,9,25,0.00
2013-7-2,84,73,61,56,51,42,80,50,24,0.00,40.00,13,5,21,0.00
2013-7-3,82,72,59,60,54,49,88,57,33,0.00,40.00,11,5,16,0.00
2013-7-4,86,75,63,60,55,51,84,52,31,0.00,40.00,16,8,22,0.00
2013-7-5,88,77,65,60,58,56,76,53,36,0.00,40.00,18,9,26,0.00
2013-7-6,91,79,68,65,61,60,76,56,35,0.00,40.00,16,9,26,0.00
2013-7-7,92,82,72,71,65,60,77,57,40,0.00,40.00,20,9,26,0.00
2013-7-8,90,82,78,73,69,-100,84,66,53,0.00,40.00,10,6,16,0.00
2013-7-9,95,83,76,74,70,67,86,68,41,0.00,40.00,13,6,21,0.75
2013-7-10,85,75,69,71,54,-100,83,52,28,0.00,40.00,14,7,23,0.00
2013-7-11,84,74,62,59,54,50,82,51,31,0.00,40.00,12,6,19,0.00
2013-7-12,86,75,64,60,57,54,81,55,37,0.00,40.00,17,9,25,0.00
2013-7-13,79,73,68,62,58,53,69,59,53,0.00,40.00,15,9,23,0.00
2013-7-14,87,77,66,63,60,57,82,59,38,0.00,40.00,13,6,21,0.00
2013-7-15,89,78,65,71,65,61,86,66,45,0.00,40.00,12,6,17,0.00
2013-7-16,92,84,74,71,68,63,86,61,38,0.00,40.00,10,6,15,0.00
2013-7-17,95,85,72,72,67,62,86,58,34,0.00,40.00,12,4,17,0.00
2013-7-18,95,85,75,71,66,62,83,55,34,0.00,40.00,17,8,26,0.00
2013-7-19,96,84,71,69,64,59,70,51,29,0.00,40.00,14,7,20,0.00
2013-7-20,90,77,62,61,56,-100,86,53,29,0.00,40.00,9,3,12,0.00
2013-7-21,82,74,66,68,63,59,86,68,45,0.00,40.00,17,6,23,0.00
2013-7-22,93,77,66,69,64,61,90,69,34,0.00,40.00,37,8,54,0.08
2013-7-23,78,70,64,67,57,52,82,65,42,0.00,40.00,12,7,18,0.00
2013-7-24,81,70,59,59,55,51,86,61,37,0.00,40.00,8,4,12,0.00
2013-7-25,86,74,62,65,60,57,86,63,39,0.00,40.00,17,7,26,0.07
2013-7-26,75,70,64,66,55,46,87,62,37,0.00,40.00,18,9,27,0.00
2013-7-27,69,62,54,52,44,38,85,55,32,0.00,40.00,16,8,24,0.00
2013-7-28,76,64,53,52,46,42,76,53,35,0.00,40.00,14,7,20,0.00
2013-7-29,74,65,51,57,51,46,88,64,38,0.00,40.00,11,5,16,0.00
2013-7-30,70,68,64,65,62,57,87,82,67,0.00,40.00,9,5,14,0.18
2013-7-31,84,74,64,68,60,56,87,65,38,0.00,40.00,10,4,17,0.00
2013-8-1,88,74,60,60,57,51,86,58,29,0.00,40.00,9,4,15,0.00
2013-8-2,83,72,65,64,60,51,84,67,38,0.00,40.00,15,4,23,0.42
2013-8-3,79,70,59,61,53,46,88,60,32,0.00,40.00,11,5,14,0.00
2013-8-4,80,70,57,56,53,50,85,58,35,0.00,40.00,11,5,17,0.00
2013-8-5,86,74,64,69,63,56,86,69,45,0.00,40.00,14,6,19,0.00
2013-8-6,90,78,64,68,64,59,88,64,35,0.00,40.00,13,5,20,0.00
2013-8-7,79,73,67,67,61,56,86,68,45,0.00,40.00,14,6,22,0.07
2013-8-8,81,69,57,60,56,52,87,65,38,0.00,40.00,8,4,12,0.00
2013-8-9,80,73,66,63,58,51,82,60,37,0.00,40.00,11,5,18,0.00
2013-8-10,85,72,59,62,55,49,86,59,35,0.00,40.00,7,3,14,0.00
2013-8-11,85,75,65,64,60,57,82,63,43,0.00,40.00,12,6,20,0.10
2013-8-17,82,68,54,56,48,-100,87,56,30,0.00,40.00,9,4,13,0.00
2013-8-18,82,70,54,58,54,51,87,61,34,0.00,40.00,10,5,16,0.00
2013-8-19,85,66,59,63,43,-100,87,63,40,0.00,40.00,13,6,21,0.00
2013-8-20,90,78,69,65,60,-100,76,59,41,0.00,40.00,17,9,24,0.00
2013-8-21,92,81,72,68,65,63,82,60,39,0.00,40.00,16,9,23,0.00
2013-8-22,87,78,69,69,66,62,87,69,43,0.00,40.00,11,5,14,0.00
2013-8-23,86,76,66,69,67,62,87,73,53,0.00,40.00,11,6,16,0.00
2013-8-24,74,74,74,67,67,67,77,77,77,0.00,40.00,7,7,11,0.00
2013-9-15,70,66,58,60,51,44,78,58,42,0.00,40.00,14,8,20,0.00
2013-9-16,66,59,52,54,50,45,88,74,47,0.00,40.00,9,5,14,0.00
2013-9-17,64,58,53,61,54,48,88,86,78,0.00,40.00,11,7,16,0.42
2013-9-18,79,68,65,67,63,62,88,85,65,0.00,40.00,11,8,17,0.03
2013-9-19,85,75,67,69,65,62,87,73,47,0.00,40.00,17,8,25,0.79
2013-9-20,67,61,55,62,48,39,87,62,45,0.00,40.00,14,9,22,0.00
2013-9-21,73,58,46,45,37,-100,82,51,26,0.00,40.00,9,4,14,0.00
2013-10-11,73,65,56,61,55,49,87,71,53,0.00,40.00,22,11,28,0.00
2013-10-12,67,57,51,45,32,-100,66,42,24,0.00,40.00,16,8,26,0.00
2013-10-13,68,53,39,34,30,28,74,44,24,0.00,40.00,7,3,11,0.00
2013-10-14,66,54,40,46,36,32,75,52,32,0.00,40.00,18,10,26,0.13
2013-10-15,60,53,49,56,44,38,88,72,57,0.00,40.00,18,12,26,0.14
2013-10-16,51,48,43,44,40,35,88,74,56,0.00,40.00,13,7,20,0.00
2013-10-17,62,51,42,39,34,27,84,58,26,0.00,40.00,12,6,17,0.00
2013-10-21,50,44,36,29,24,22,65,45,34,0.00,40.00,17,7,22,0.00
2013-10-22,42,39,37,38,33,25,89,77,56,0.00,40.00,12,6,19,1.21
2013-10-23,43,39,33,36,29,23,84,69,44,0.00,40.00,10,6,16,0.09
2013-10-24,46,40,33,29,25,21,71,56,39,0.00,40.00,12,7,21,0.08
2013-10-25,57,43,29,27,26,24,85,54,30,0.00,40.00,20,9,31,0.00
2013-10-26,52,45,37,32,24,-100,63,46,34,0.00,40.00,17,9,28,0.00
2013-10-27,63,45,30,32,28,24,86,56,27,0.00,40.00,17,6,24,0.00
2013-10-28,52,44,38,35,30,-100,82,64,50,0.00,40.00,17,11,24,0.00
2013-10-29,57,48,41,46,39,32,79,69,57,0.00,40.00,12,9,18,0.00
2013-10-30,65,57,53,57,52,46,88,84,61,0.00,40.00,18,8,26,0.57
2013-10-31,58,47,42,54,40,36,88,78,67,0.00,40.00,14,7,18,0.06
2013-11-6,46,38,35,38,28,16,89,67,30,0.00,40.00,18,11,30,0.10
2013-11-7,47,38,32,31,26,18,82,64,35,0.00,40.00,12,6,21,0.00
2013-11-8,59,44,27,31,26,18,80,51,32,0.00,40.00,24,9,34,0.00
2013-11-9,57,48,39,34,29,-100,62,49,39,0.00,40.00,19,12,27,0.00
2013-11-10,49,40,29,29,26,24,80,58,42,0.00,40.00,9,6,16,0.00
2013-11-11,48,33,19,31,23,11,83,66,46,0.00,40.00,20,12,27,0.03
2013-11-12,32,22,12,13,10,7,79,62,38,0.00,40.00,11,6,17,0.00
2013-11-29,37,24,9,22,14,4,80,67,50,0.00,40.00,14,6,18,0.00
2013-11-30,50,36,27,30,23,-100,80,64,44,0.00,40.00,9,5,14,0.00
2013-12-1,40,34,26,29,26,21,82,73,61,0.00,40.00,9,4,11,0.00
2013-12-2,46,38,34,36,32,28,87,78,65,0.00,40.00,15,7,21,0.00
2013-12-3,39,37,34,37,34,31,90,90,88,0.00,40.00,11,6,16,0.00
2013-12-4,38,31,19,36,28,10,90,87,68,0.00,40.00,17,8,27,2.47
2013-12-5,19,13,8,10,1,-5,68,56,50,0.00,40.00,20,13,33,0.00
2013-12-6,14,7,1,-3,-7,-10,59,53,46,0.00,40.00,14,9,20,0.00
2013-12-12,28,17,2,13,5,-7,75,60,46,0.00,40.00,10,6,14,0.00
2013-12-13,27,20,11,18,14,6,82,76,67,0.00,40.00,17,9,22,0.96
2013-12-14,23,19,12,17,10,-100,86,73,64,0.00,40.00,20,11,26,0.01
2013-12-15,15,12,9,6,4,2,75,66,57,0.00,40.00,12,6,14,0.00
2013-12-16,26,19,12,20,13,6,84,78,73,0.00,40.00,12,6,15,0.00
2013-12-17,36,29,23,26,17,10,80,64,38,0.00,40.00,21,8,30,5.59
2013-12-18,47,32,14,29,20,6,82,62,45,0.00,40.00,16,6,22,11.61
2013-12-19,33,31,26,28,25,23,88,80,74,0.00,40.00,17,10,22,10.60
2013-12-20,27,24,21,24,21,17,89,87,85,0.00,40.00,13,8,17,0.00
2013-12-21,26,22,18,22,16,-100,86,81,80,0.00,40.00,16,8,22,0.01
2013-12-22,26,18,6,22,12,-1,90,78,70,0.00,40.00,17,12,24,3.63
2013-12-23,7,2,-4,-2,-10,-17,71,58,45,0.00,40.00,15,9,22,0.00
2013-12-24,15,1,-15,9,-9,-23,76,62,51,0.00,40.00,16,8,21,0.00
2013-12-25,33,24,15,26,18,10,88,78,65,0.00,40.00,14,8,21,0.00
2013-12-28,50,38,25,28,24,-100,86,59,40,0.00,40.00,23,10,35,0.00
2013-12-29,23,8,0,19,-2,-14,86,64,42,0.00,40.00,24,16,35,0.01
2013-12-30,11,5,-2,7,-3,-14,84,69,52,0.00,40.00,12,5,14,0.04
2013-12-31,10,7,3,3,2,-1,84,78,72,0.00,40.00,16,8,19,0.00
2014-1-1,9,7,4,3,0,-2,78,74,70,0.00,40.00,17,12,20,0.02
2014-1-2,7,2,-6,-2,-5,-12,74,70,62,0.00,40.00,13,8,17,0.00